Simultaneous Nadir Overpasses (SNOs) Predictions

Prediction of SNOs between GOES-16 and TERRA Satellite Orbit:

Table of predicted SNOs for the next 14.0 days since TLE Epoch: 10/16/2023
Index Date Time (GOES-16) GOES-16 Lat,Lon TERRA Lat,Lon Distance(km) Time Diff (sec)
1 10/18/2023 02:55:58 0.05, -75.20 0.24, -74.31 101.37 80
2 10/18/2023 15:16:05 -0.05, -75.22 0.80, -79.20 452.89 80
3 10/20/2023 15:02:10 -0.04, -75.22 -0.05, -75.20 2.12 80
4 10/22/2023 14:45:34 -0.03, -75.22 -0.87, -71.19 457.68 80
5 10/23/2023 03:05:51 0.03, -75.20 -0.13, -76.12 103.66 80
6 10/25/2023 02:46:34 0.03, -75.21 0.67, -72.10 353.20 80
7 10/25/2023 15:06:40 -0.03, -75.23 0.35, -76.99 200.51 80
8 10/27/2023 14:52:43 -0.03, -75.25 -0.49, -72.98 257.51 80
9 10/28/2023 03:12:59 0.03, -75.24 -0.53, -77.91 303.00 80
10 10/30/2023 02:53:41 0.03, -75.27 0.29, -73.89 155.91 80
